Location: Bohy
(49.9380°N, 13.5753°E)
Time: 22:23:47
(UTC+00:00)

Cosmos 1833 Rocket - Visible Passes

Search period start: 14 May 2026 00:00
Search period end: 24 May 2026 00:00
Orbit: 832 x 838 km, 71.0° (Epoch: 14 May)

Date Brightness Start Highest point End Pass type
(mag) Time Alt. Az. Time Alt. Az. Time Alt. Az.
14 May 6.3 00:03:14 10° N 00:03:59 10° NNE 00:04:45 10° NNE visible
14 May 5.0 01:45:12 10° NNW 01:50:00 28° NE 01:54:47 10° ESE visible
14 May 5.6 20:09:16 10° W 20:13:25 21° NW 20:17:36 10° N visible
15 May 5.1 01:28:06 10° NNW 01:32:48 26° NE 01:37:29 10° E visible
15 May 5.6 19:51:56 10° W 19:56:13 22° NW 20:00:32 10° N visible
16 May 5.1 01:11:01 10° NNW 01:15:37 25° NE 01:20:11 10° E visible
16 May 5.5 19:34:36 10° W 19:39:00 23° NW 19:43:27 10° NNE visible
17 May 5.2 00:53:55 10° NNW 00:58:25 23° NE 01:02:53 10° E visible
17 May 2.7 02:37:23 10° NNW 02:43:03 86° WSW 02:48:41 10° SSE visible
18 May 5.2 00:36:51 10° NNW 00:41:13 22° NE 00:45:34 10° E visible
18 May 2.8 02:20:15 10° NNW 02:25:55 88° ENE 02:31:34 10° SSE visible
19 May 5.3 00:19:46 10° N 00:24:00 21° NE 00:28:14 10° E visible
19 May 2.8 02:03:07 10° NNW 02:08:48 83° ENE 02:14:26 10° SSE visible
19 May 6.2 20:32:56 10° NNW 20:33:27 10° NNW 20:33:58 10° NNW visible
20 May 5.3 00:02:41 10° N 00:06:47 20° NE 00:10:53 10° E visible
20 May 2.9 01:45:59 10° NNW 01:51:40 77° ENE 01:57:18 10° SSE visible
20 May 6.1 20:15:08 10° NNW 20:16:12 10° NNW 20:17:15 10° N visible
20 May 5.3 23:45:36 10° N 23:49:34 19° NE 23:53:33 10° E visible
21 May 3.0 01:28:52 10° NNW 01:34:31 72° ENE 01:40:09 10° SE visible
21 May 6.0 19:57:31 10° NW 19:58:56 11° NNW 20:00:22 10° N visible
21 May 5.4 23:28:32 10° N 23:32:22 18° NE 23:36:11 10° ENE visible
22 May 3.1 01:11:45 10° NNW 01:17:23 67° ENE 01:22:59 10° SE visible
22 May 5.9 19:39:57 10° NW 19:41:41 11° NNW 19:43:25 10° N visible
22 May 5.3 23:11:28 10° N 23:15:09 17° NNE 23:18:49 10° ENE visible
23 May 3.2 00:54:38 10° NNW 01:00:15 62° ENE 01:05:49 10° SE visible
23 May 5.3 22:54:23 10° N 22:57:55 17° NNE 23:01:26 10° ENE visible
